Location: Codolet
(44.1237°N, 4.6982°E)
Time: 18:18:13
(UTC+00:00)

Daily predictions for brighter satellites

Satellite Brightness Start Highest point End
(mag) Time Altitude Azimuth Time Altitude Azimuth Time Altitude Azimuth
Cosmos 1048 Rocket 4.3 17:14:39 10° N 17:19:53 49° ENE 17:25:01 10° SE
CZ-4C R/B 4.2 17:18:07 10° NE 17:20:51 22° E 17:23:31 10° SSE
Cosmos 2298 Rocket 4.4 17:16:04 10° S 17:21:03 43° ESE 17:26:02 10° NNE
H-2A R/B 3.8 17:18:04 10° ESE 17:21:28 22° ENE 17:24:48 10° NNE
Cosmos 2360 4.5 17:16:28 10° S 17:21:54 48° ESE 17:27:22 10° NE
MOS 1-B 4.4 17:16:14 10° SSE 17:22:01 75° ENE 17:27:49 10° NNW
Cosmos 1980 Rocket 3.1 17:17:49 10° SSE 17:22:33 28° ESE 17:27:20 10° NE
Cosmos 2297 Rocket 2.5 17:18:29 10° NNW 17:24:09 76° WSW 17:29:47 10° SSE
Cosmos 389 Rocket 3.3 17:21:28 10° SSE 17:24:21 26° E 17:27:16 10° NE
Cosmos 2218 Rocket 4.0 17:18:53 10° S 17:25:08 81° E 17:31:30 10° N
Cosmos 2263 Rocket 3.5 17:22:03 10° N 17:26:08 20° NE 17:30:12 10° E
SL-8 Rocket 4.3 17:24:50 10° SSW 17:31:10 78° W 17:37:31 10° N
Cosmos 1656 4.1 17:25:47 10° SW 17:31:16 65° WNW 17:36:44 10° NNE
Cosmos 1821 Rocket 4.4 17:25:33 10° SSE 17:31:28 42° E 17:37:24 10° NNE
X-37B 1.4 17:30:05 10° SW 17:33:02 37° SSE 17:35:50 11° E
deb Chang Zheng 4 3.5 17:30:34 10° SSE 17:34:45 83° ENE 17:38:59 10° NNW
ARGOS 3.5 17:30:36 10° SE 17:35:41 45° ENE 17:40:49 10° N
Genesis I 3.7 17:32:12 10° NNW 17:36:08 42° NE 17:40:02 10° ESE
Cosmos 405 3.7 17:35:07 10° SSW 17:38:29 55° WNW 17:41:53 10° N
Cosmos 1697 Rocket 2.7 17:35:19 10° SSW 17:40:58 77° ESE 17:46:38 10° NNE
Cosmos 1125 Rocket 3.6 17:36:01 10° S 17:41:07 53° ESE 17:46:13 10° NNE
Cosmos 1908 3.7 17:41:11 10° SSE 17:44:48 39° E 17:48:26 10° NNE
Cosmos 2098 4.0 17:43:36 10° S 17:46:35 63° E 17:49:36 10° NNE
Cosmos 1607 4.1 17:41:44 10° NNW 17:47:55 53° NE 17:53:57 10° SE
Cosmos 1356 3.4 17:45:20 10° NNW 17:48:44 81° W 17:52:06 10° S
Cosmos 2227 Rocket 2.7 17:44:57 10° NNW 17:50:35 64° WSW 17:56:10 10° S
SJ-11-01 4.3 17:46:17 10° SSE 17:50:53 61° ENE 17:55:32 10° N
Cosmos 2278 4.2 17:46:45 10° S 17:51:54 37° ESE 17:57:05 10° NE
Iridium 4 Rocket 4.0 17:48:44 10° NNE 17:52:31 28° E 17:56:33 10° SE
Cosmos 494 Rocket 3.9 17:48:25 10° NNW 17:53:40 75° ENE 17:58:49 10° SSE
Landsat 5 3.5 17:49:45 10° NNE 17:54:05 78° ESE 17:58:31 10° S
MOS 1-B Rocket 4.2 17:49:13 10° NNE 17:56:15 65° E 18:02:14 10° S
CZ-2C R/B 2.7 17:50:49 10° NNE 17:56:27 69° E 18:01:59 10° S
SKYMED 2 3.5 17:52:41 10° NNE 17:57:04 88° ESE 18:01:24 10° SSW
Cosmos 1934 Rocket 4.5 17:51:48 10° SSE 17:57:14 34° E 18:02:39 10° NNE
Timation 2 Rocket 4.3 17:50:36 10° NNW 17:57:32 82° WSW 18:04:14 10° SSE
Okean O Rocket 1.7 17:57:10 10° SSE 18:01:30 81° WSW 18:05:52 10° NNW
Meteor 1-16 Rocket 4.3 17:58:34 10° S 18:04:23 62° E 18:10:10 10° NNE
Cosmos 1758 4.4 18:02:45 10° SSW 18:06:37 48° WNW 18:10:30 10° N
Cosmos 2123 Rocket 4.3 18:01:24 10° N 18:07:24 43° ENE 18:13:22 10° SE
CZ-4 R/B 1.5 18:03:57 10° SSE 18:07:44 48° ENE 18:11:38 10° N
YAOGAN 1 2.7 18:04:20 10° SSE 18:08:31 51° ENE 18:12:42 10° N
Cosmos 1703 3.3 18:04:55 10° N 18:08:49 56° E 18:12:39 10° SSE
SL-16 R/B 3.5 18:05:47 10° SE 18:08:50 18° ESE 18:08:50 18° ESE
DMSP B5D2-2 4.5 18:05:06 10° NNE 18:10:02 39° E 18:14:55 10° SSE
Okean-O 3.4 18:07:42 18° ESE 18:10:15 31° ENE 18:14:10 10° N
Cosmos 1455 Rocket 3.1 18:08:48 10° S 18:13:04 55° E 18:17:24 10° NNE
Cosmos 2082 3.8 18:10:10 10° NNW 18:15:48 81° WSW 18:21:25 10° SSE
Spot 2 3.8 18:12:42 10° SSE 18:16:44 85° ENE 18:20:56 10° NNW
Cosmos 1953 2.2 18:13:10 10° S 18:17:12 86° E 18:21:17 10° N
Tiangong 3.6 18:18:14 10° S 18:18:36 11° SSE 18:18:36 11° SSE
H-2A R/B 2.2 18:16:21 10° NNE 18:20:18 45° E 18:24:16 10° S
Okean 1-7 Rocket 3.9 18:18:01 10° N 18:22:13 41° ENE 18:24:34 22° SE
Cosmos 1328 4.1 18:19:23 10° N 18:23:16 45° ENE 18:25:12 25° SE
Meteor 1-21 Rocket 4.3 18:18:31 10° NNW 18:24:23 86° W 18:30:17 10° S
Cosmos 1544 Rocket 3.8 18:22:06 10° SSE 18:26:19 43° E 18:30:34 10° NNE
H-2A R/B 3.6 18:25:48 10° SSW 18:30:44 39° W 18:35:48 10° NNW
ATLAS 3B R/B 3.5 18:28:04 10° WSW 18:34:22 48° NW 18:41:00 10° NNE
Cosmos 1300 3.5 18:30:50 10° SSE 18:38:01 11° NNE 18:38:10 10° NNE
Lacrosse 4 Rocket 3.6 18:34:40 10° N 18:36:04 13° NNE 18:36:04 13° NNE
Cosmos 405 Rocket 2.7 18:34:30 10° NNW 18:38:26 83° W 18:42:25 10° S
ATLAS 5 CENTAUR R/B 1.2 18:40:27 10° SW 18:44:19 86° SE 18:45:39 42° NE
NOSS 3-1 (C) 4.1 18:44:42 10° S 18:47:41 28° SSE 18:47:41 28° SSE
HJ-1C 4.0 18:51:07 32° SSW 18:52:19 52° W 18:55:31 10° NNW
Cosmos 2227 4.2 18:47:31 10° NNW 18:53:17 66° ENE 18:55:04 44° SE
SL-8 R/B 3.8 18:48:53 10° SW 18:53:33 55° SSE 18:53:45 54° SE
IRS-1C Rocket 4.1 18:50:32 10° SSE 18:55:46 79° WSW 19:01:05 10° NNW
H-2A R/B 4.0 18:52:35 10° SSW 18:56:42 38° W 19:00:44 10° NNW
Cosmos 1605 Rocket 3.9 18:50:40 10° S 18:56:46 64° E 19:03:01 10° NNE
Cosmos 1535 Rocket 4.5 18:55:19 10° S 19:01:32 86° W 19:07:53 10° N
Cosmos 1980 Rocket 3.2 19:00:54 10° SW 19:06:18 46° WNW 19:11:47 10° NNE
Meteor 2-10 Rocket 4.3 19:01:58 10° S 19:09:28 39° NE 19:12:59 10° NNE
Cosmos 1447 Rocket 4.4 19:01:33 10° N 19:07:37 56° ENE 19:07:59 55° E
X-37B 2.5 19:06:23 10° W 19:08:08 30° W 19:08:08 30° W
Cosmos 2263 Rocket 2.2 19:05:06 10° NNW 19:10:40 74° WSW 19:12:46 39° S
CSL-04 Debris 4.1 19:08:41 30° S 19:11:29 81° WSW 19:16:54 10° NNW
Cosmos 1269 Rocket 4.2 19:07:17 10° NNW 19:12:34 70° WSW 19:14:31 39° S
Cosmos 724 4.3 19:20:05 10° NW 19:26:02 74° WSW 19:26:54 63° S
Cosmos 1626 Rocket 4.3 19:24:38 10° NNW 19:28:11 48° WNW 19:28:11 48° WNW
Cosmos 371 Rocket 3.9 19:25:17 10° SSW 19:28:53 49° SW 19:28:53 49° SW
CSL-04 Rocket 4.1 19:30:11 36° SSW 19:32:16 60° WSW 19:37:47 10° NNW
Gbstr 26 Del rocket 4.4 19:35:23 10° WNW 19:42:57 77° SW 19:44:00 68° SSE
CZ-4 R/B 4.4 19:40:54 10° WSW 19:43:01 14° W 19:45:10 10° WNW
USA 215 4.4 19:42:01 28° NNE 19:43:14 30° N 19:48:43 10° NW
Cosmos 1844 Rocket 4.0 19:41:19 10° NNW 19:44:20 30° N 19:44:20 30° N
SL-16 R/B 3.2 19:47:26 10° SW 19:50:51 37° SW 19:50:51 37° SW
Cosmos 2344 4.2 20:04:48 10° NW 20:14:11 89° SW 20:15:56 70° SSE
Lacrosse 4 Rocket 4.4 20:11:56 10° NNW 20:12:21 13° NNW 20:12:21 13° NNW
